Simultaneous Nadir Overpasses (SNOs) Predictions

Prediction of SNOs between METOP-C and LANDSAT-8 Satellite Orbit:

Table of predicted SNOs for the next 14.0 days since TLE Epoch: 8/28/2021
Index Date (METOP-C) Time (METOP-C) Lat,Lon (METOP-C) SZA (METOP-C ) Date (LANDSAT-8) Time (LANDSAT-8) Lat,Lon (LANDSAT-8) SZA (LANDSAT-8 ) Distance(km) Time Diff (sec)
1 08/28/2021 07:49:46 -81.18, -76.43 106.25 08/28/2021 07:50:07 -81.18, -76.61 106.26 3.08 21
2 08/28/2021 08:40:26 81.20, 91.51 73.84 08/28/2021 08:39:32 81.21, 91.50 73.82 0.51 54
3 08/31/2021 03:24:06 -81.19, -9.85 105.21 08/31/2021 03:24:23 -81.19, -10.03 105.22 3.10 17
4 08/31/2021 04:14:47 81.19, 157.67 74.84 08/31/2021 04:13:49 81.19, 157.68 74.81 0.44 58
5 09/02/2021 22:58:26 -81.18, 56.34 104.19 09/02/2021 22:58:39 -81.17, 56.18 104.21 2.99 13
6 09/02/2021 23:49:06 81.20,-135.80 75.89 09/02/2021 23:48:04 81.20,-135.76 75.87 0.67 62
7 09/05/2021 18:32:46 -81.19, 122.90 103.12 09/05/2021 18:32:55 -81.18, 122.75 103.13 2.62 9
8 09/05/2021 19:23:26 81.20, -69.29 76.96 09/05/2021 19:22:20 81.20, -69.21 76.94 1.48 66
9 09/08/2021 14:07:06 -81.19,-170.55 102.03 09/08/2021 14:07:11 -81.19,-170.68 102.04 2.11 5



Historial Predications of SNOs between METOP-C and LANDSAT-8
